Regional Weather Roundup
Issued by NWS

Home | Current Version | Previous Version | Text Only | Print | Product List | Glossary On
Versions: 1 2 3 4 5 6 7 8 9 10 11 12 13 14 15 16 17 18 19 20 21 22 23 24 25 26 27 28 29 30 31 32 33 34 35 36 37 38 39 40 41 42 43 44 45 46 47 48 49 50
000
ASUS43 KDTX 031701
RWRMI
MICHIGAN HOURLY REGIONAL WEATHER ROUNDUP
NATIONAL WEATHER SERVICE DETROIT/PONTIAC MI
100 PM EDT WED JUN 03 2015

NOTE: "FAIR" INDICATES FEW OR NO CLOUDS BELOW 12,000 FEET WITH NO
SIGNIFICANT WEATHER AND/OR OBSTRUCTION TO VISIBILITY.

MIZ047>049-052>055-059>063-066>070-074>076-081>083-031800-
SOUTHEAST LOWER MICHIGAN

CITY           SKY/WX    TMP DP  RH WIND       PRES   REMARKS
ADRIAN         MOSUNNY   69  54  58 E9        30.12F
ALMA           MOSUNNY   70  51  50 SE6       30.12F
ANN ARBOR      PTSUNNY   69  55  60 E7        30.11F
BAD AXE        SUNNY     68  48  47 S9        30.14F
CARO           SUNNY     71  53  53 S5        30.12S
DETROIT CITY   SUNNY     70  54  56 E10       30.13F
DETROIT        MOSUNNY   70  52  52 E7        30.12F
FLINT          SUNNY     74  54  49 SE12      30.11F
GROSSE ILE     SUNNY     66  57  72 S8        30.12F
HILLSDALE      CLOUDY    68  55  62 SE8       30.11S
HOWELL         MOSUNNY   70  53  55 SE7       30.11F

CITY           SKY/WX    TMP DP  RH WIND       PRES   REMARKS
JACKSON        PTSUNNY   70  55  59 SE9       30.11S
LAMBERTVILLE   SUNNY     70  50  49 E7G16     30.12F
LANSING        PTSUNNY   71  54  54 SE9       30.13R
LAPEER         FAIR      68  53  57 SE5       30.12F
MASON          MOSUNNY   69  55  60 SE7       30.11S
MONROE         SUNNY     68  54  60 SE10      30.11F
MT. CLEMENS    MOSUNNY   67  57  69 SE7       30.12F
PONTIAC        PTSUNNY   70  52  52 SE12G20   30.11F
PORT HOPE        N/A     60  52  74 E21       30.13F
PORT HURON     SUNNY     70  52  52 SE8       30.14F
TRI CITIES     SUNNY     72  49  44 VRB6      30.13S
MIDLAND        FAIR      71  47  42 CALM      30.12S
TROY           SUNNY     72  52  49 SE6       30.13F
SAGINAW HB     SUNNY     70  48  46 SE7       30.11F
$$
MIZ043>046-050>051-056>058-064>065-071>073-077>080-031800-
SOUTHWEST LOWER MICHIGAN

CITY           SKY/WX    TMP DP  RH WIND       PRES   REMARKS
BATTLE CREEK   PTSUNNY   70  54  56 S12       30.11S
BENTON HARBOR  SUNNY     71  52  50 SE10      30.07F
BIG RAPIDS     SUNNY     70  41  34 SE9G23    30.09F
COLDWATER      CLOUDY    67  54  63 SE5       30.11R
FREMONT        FAIR      70  46  41 S12G17    30.08F
HOLLAND        PTSUNNY   71  53  52 SW5       30.09F
GRAND RAPIDS   PTSUNNY   71  52  50 SE9       30.10S
IONIA          FAIR      70  52  51 S9        30.10S
KALAMAZOO      PTSUNNY   70  56  61 S10       30.10S
LUDINGTON      SUNNY     68  52  55 W9        30.07F
MARSHALL       CLOUDY    70  53  55 SE6       30.10S
MOUNT PLEASANT SUNNY     70  48  45 SE8       30.10F
MUSKEGON       PTSUNNY   69  50  50 SW10      30.08F
SOUTH HAVEN    MOSUNNY   70  51  50 S5        30.08F
$$
MIZ016>042-031800-
NORTHERN LOWER MICHIGAN

CITY           SKY/WX    TMP DP  RH WIND       PRES   REMARKS
ALPENA         SUNNY     71  47  42 SE12G22   30.13F
BEAVER ISLAND  SUNNY     69  46  43 SW16G22   30.09F
BELLAIRE       SUNNY     73  44  35 S5        30.08F
CADILLAC       SUNNY     70  44  38 E12       30.09F
CHARLEVOIX     SUNNY     72  50  45 S5        30.12S
FRANKFORT      SUNNY     68  41  38 SW7       30.08S
GAYLORD        SUNNY     70  43  37 S8        30.11F
GRAYLING       SUNNY     71  40  32 E6        30.12S
HARBOR SPRINGS SUNNY     72  49  44 W5        30.09F
HOUGHTON LAKE  SUNNY     72  40  31 SE8       30.12F
MANISTEE       SUNNY     72  45  37 SW7       30.07F
OSCODA         SUNNY     64  47  55 E8        30.14F
PELLSTON       MOSUNNY   72  49  44 SW7       30.09F
ROGERS CITY    SUNNY     72  48  42 S12       30.12S
TRAVERSE CITY  MOSUNNY   75  46  35 S10       30.07F
$$
MIZ007>008-015-031800-
EASTERN UPPER MICHIGAN

CITY           SKY/WX    TMP DP  RH WIND       PRES   REMARKS
KINROSS        SUNNY     68  48  49 SW9G16    30.11R
MACKINAC ISLAN MOSUNNY   67  49  52 N5        30.10F
NEWBERRY       SUNNY     65  48  54 S18G24    30.07F
S. S. MARIE    SUNNY     69  49  48 S13G21    30.09S
$$
MIZ004>006-011>014-085-031800-
CENTRAL UPPER MICHIGAN

CITY           SKY/WX    TMP DP  RH WIND       PRES   REMARKS
MANISTIQUE     SUNNY     55  45  70 S10G16    30.07F
ESCANABA       SUNNY     63  48  59 S12       30.02F
MENOMINEE      SUNNY     70  54  56 SE12      30.02F
SAWYER-GWINN   SUNNY     72  48  43 S15G25    29.99S
$$
MIZ001>003-009>011-084-031800-
WESTERN UPPER MICHIGAN

CITY           SKY/WX    TMP DP  RH WIND       PRES   REMARKS
IRON MOUNTAIN  SUNNY     73  50  44 S15G23    29.98S
HOUGHTON       CLOUDY    67  53  61 CALM      29.93R
COPPER HARBOR    N/A     53  42  66 E5        29.94R
IRONWOOD       CLOUDY    70  55  60 S13       29.88R
$$

ABBREVIATIONS USED IN REMARKS
   TC - TEMPERATURE IN CELSIUS
  WCI - WIND CHILL INDEX
   HX - HEAT INDEX
  VSB - VISIBILITY



USA.gov is the U.S. government's official web portal to all federal, state and local government web resources and services.